Time,TemperatureF,DewpointF,PressureIn,WindDirection,WindDirectionDegrees,WindSpeedMPH,WindSpeedGustMPH,Humidity,HourlyPrecipIn,Conditions,Clouds,dailyrainin,SoftwareType,DateUTC
2013-01-10 05:00:00,30.0,-99.9,-100.00,NE,40,2.0,-999.0,-999,-99.99,,,-99.99,,2013-01-10 12:00:00,
2013-01-10 05:53:00,30.0,-99.9,-100.00,NE,40,2.0,-999.0,-999,-99.99,,,-99.99,,2013-01-10 12:53:00,
2013-01-10 06:00:00,28.0,-99.9,-100.00,NE,45,2.0,-999.0,-999,-99.99,,,-99.99,,2013-01-10 13:00:00,
2013-01-10 06:53:00,28.0,-99.9,-100.00,NE,45,2.0,-999.0,-999,-99.99,,,-99.99,,2013-01-10 13:53:00,
2013-01-10 07:00:00,26.0,-99.9,-100.00,NE,51,2.0,-999.0,-999,-99.99,,,-99.99,,2013-01-10 14:00:00,
2013-01-10 07:53:00,26.0,-99.9,-100.00,NE,51,2.0,-999.0,-999,-99.99,,,-99.99,,2013-01-10 14:53:00,
2013-01-10 08:00:00,28.0,-99.9,-100.00,North,2,2.0,-999.0,-999,-99.99,,,-99.99,,2013-01-10 15:00:00,
2013-01-10 08:53:00,28.0,-99.9,-100.00,North,2,2.0,-999.0,-999,-99.99,,,-99.99,,2013-01-10 15:53:00,
2013-01-10 09:00:00,32.0,-99.9,-100.00,NNE,23,3.0,-999.0,-999,-99.99,,,-99.99,,2013-01-10 16:00:00,
2013-01-10 09:53:00,32.0,-99.9,-100.00,NNE,23,3.0,-999.0,-999,-99.99,,,-99.99,,2013-01-10 16:53:00,
2013-01-10 10:00:00,34.0,-99.9,-100.00,NNW,344,2.0,-999.0,-999,-99.99,,,-99.99,,2013-01-10 17:00:00,
2013-01-10 10:54:00,34.0,-99.9,-100.00,NNW,344,2.0,-999.0,-999,-99.99,,,-99.99,,2013-01-10 17:54:00,
2013-01-10 11:00:00,36.0,-99.9,-100.00,NNE,31,2.0,-999.0,-999,-99.99,,,-99.99,,2013-01-10 18:00:00,
2013-01-10 11:53:00,36.0,-99.9,-100.00,NNE,31,2.0,-999.0,-999,-99.99,,,-99.99,,2013-01-10 18:53:00,
2013-01-10 12:00:00,37.0,-99.9,-100.00,NE,35,4.0,-999.0,-999,-99.99,,,-99.99,,2013-01-10 19:00:00,
2013-01-10 13:00:00,38.0,-99.9,-100.00,NNE,16,3.0,-999.0,-999,-99.99,,,-99.99,,2013-01-10 20:00:00,
2013-01-10 13:54:00,38.0,-99.9,-100.00,NNE,16,3.0,-999.0,-999,-99.99,,,-99.99,,2013-01-10 20:54:00,
2013-01-10 14:00:00,39.0,-99.9,-100.00,East,89,2.0,-999.0,-999,-99.99,,,-99.99,,2013-01-10 21:00:00,
2013-01-10 14:54:00,39.0,-99.9,-100.00,East,89,2.0,-999.0,-999,-99.99,,,-99.99,,2013-01-10 21:54:00,
2013-01-10 15:00:00,40.0,-99.9,-100.00,North,5,2.0,-999.0,-999,-99.99,,,-99.99,,2013-01-10 22:00:00,
2013-01-10 16:00:00,40.0,-99.9,-100.00,NNE,28,2.0,-999.0,-999,-99.99,,,-99.99,,2013-01-10 23:00:00,
2013-01-10 16:54:00,40.0,-99.9,-100.00,NNE,28,2.0,-999.0,-999,-99.99,,,-99.99,,2013-01-10 23:54:00,
2013-01-10 17:00:00,38.0,-99.9,-100.00,ESE,107,2.0,-999.0,-999,-99.99,,,-99.99,,2013-01-11 00:00:00,
2013-01-10 18:00:00,36.0,-99.9,-100.00,NNW,332,2.0,-999.0,-999,-99.99,,,-99.99,,2013-01-11 01:00:00,
2013-01-10 18:54:00,36.0,-99.9,-100.00,NNW,332,2.0,-999.0,-999,-99.99,,,-99.99,,2013-01-11 01:54:00,
2013-01-10 19:00:00,34.0,-99.9,-100.00,East,85,1.0,-999.0,-999,-99.99,,,-99.99,,2013-01-11 02:00:00,
2013-01-10 19:54:00,34.0,-99.9,-100.00,East,85,1.0,-999.0,-999,-99.99,,,-99.99,,2013-01-11 02:54:00,
2013-01-10 20:00:00,34.0,-99.9,-100.00,NNE,20,1.0,-999.0,-999,-99.99,,,-99.99,,2013-01-11 03:00:00,
2013-01-10 20:53:00,34.0,-99.9,-100.00,NNE,20,1.0,-999.0,-999,-99.99,,,-99.99,,2013-01-11 03:53:00,
2013-01-10 21:00:00,36.0,-99.9,-100.00,East,89,1.0,-999.0,-999,-99.99,,,-99.99,,2013-01-11 04:00:00,
2013-01-10 21:53:00,36.0,-99.9,-100.00,East,89,1.0,-999.0,-999,-99.99,,,-99.99,,2013-01-11 04:53:00,
2013-01-10 22:00:00,47.0,-99.9,-100.00,South,177,4.0,-999.0,-999,-99.99,,,-99.99,,2013-01-11 05:00:00,
2013-01-10 22:53:00,47.0,-99.9,-100.00,South,177,4.0,-999.0,-999,-99.99,,,-99.99,,2013-01-11 05:53:00,
2013-01-10 23:00:00,45.0,-99.9,-100.00,South,176,5.0,-999.0,-999,-99.99,,,-99.99,,2013-01-11 06:00:00,
2013-01-10 23:53:00,45.0,-99.9,-100.00,South,176,5.0,-999.0,-999,-99.99,,,-99.99,,2013-01-11 06:53:00,